SHIYAN 20B (SY-20B)

Satellite information

Favourite Embed

Satellite Type and Status

PAYLOADIN ORBIT

Key statistics

Satellite SHIYAN 20B (SY-20B) at a glance.

Uptime

999

Days in orbit

Revolutions

≈ 14.3

Per day

Orbit

LEO

Low Earth Orbit

Inclination

60.0

Latest

Satellite identification and parameters

Extended collection of information and parameters for SHIYAN 20B (SY-20B).

Object identification

Identified? True

Debris? False

Object name: SHIYAN 20B (SY-20B)

International designator: 2022-169B

Object number (NORAD): 54700

Object ID (CCSDS): 54700

Country: PEOPLES REPUBLIC OF CHINA (PRC)

Current information (Y/N): Y

RCS size: LARGE

Orbital parameters

Period: 100.742 minutes

Inclination: 59.996 deg

SMA: 7171.909 km

Apoapsis: 807.784 km

Periapsis: 779.764 km

RAAN: 99.6877 deg

Eccentricy: 0.00195347

Argument of periapsis: 31.2855 deg

Mean anomaly: 328.9338 deg

Mean motion: 14.29389652 rev/day

Mean motion (dot): 0.0000016 rev/day2

B* drag term: 0.00011565636 1/REarth

Two-line elements (TLE)

Creation date: Sept. 6, 2025, 2:09 a.m.

Reference frame: TEME

Reference center: EARTH

Epoch: Sept. 5, 2025, 11:35 p.m. UTC

TLE line 0: 0 SHIYAN 20B (SY-20B)

TLE line 1: 1 54700U 22169B 25248.98310068 .00000160 00000-0 11566-3 0 9991

TLE line 2: 2 54700 59.9960 99.6877 0019535 31.2855 328.9338 14.29389652142720

Live tracking on map

Real-time ground track for satellite SHIYAN 20B (SY-20B).

In-orbit conjunctions

There are no conjunctions computed for SHIYAN 20B (SY-20B), at the moment. Check back to stay up to date, as we update our databases every day.

Go to all conjunctions

Associated space launch

Chinese classified satellites of unknown purposes.

SHIYAN 20B (SY-20B) was lifted into orbit during the mission ‘Long March 4C | Shiyan 20A & 20B’, on board a Long March 4C space rocket.

The launch took place on Dec. 12, 2022, 8:22 a.m. from Launch Area 4 (SLS-2 / 603).

For more information about the launch, click the button.

Launch to space Long March 4C | Shiyan 20A & 20B
Long March 4C | Shiyan 20A & 20B

Agency: N/A

Status: Launch Successful

Launch date: Dec. 12, 2022, 8:22 a.m. UTC

Rocket: Long March 4C

Launch pad: Launch Area 4 (SLS-2 / 603)

Location: Jiuquan Satellite Launch Center, People's Republic of China

...

Latest news about this satellite

There are no fresh news available about this satellite. Check back as we update our databases every day.


Newsletter sign-up

Weekly statistics, charts and insights to help you stay on top of the space industry.